Tracking 17630 objects as of 24-May-2016
HD Live streaming from Space Station
objects crossing your sky now

BREEZE-M DEB (TANK)

Track BREEZE-M DEB (TANK) now!


NORAD ID: 32374
Int'l Code: 2007-058B
Perigee: 504.6 km
Apogee: 34,541.7 km
Inclination: 46.5 °
Period: 612.6 minutes
Semi major axis: 23894 km
RCS: 5.0489 m2 (large)
Launch date: December 9, 2007
Source: Commonwealth of Independent States (former USSR) (CIS)
Launch site: TYURATAM MISSILE AND SPACE COMPLEX (TTMTR)

Note: This is SATELLITE DEBRIS
Your satellite tracking list
Your tracking list is empty





NASA's NSSDC Master Catalog

Two Line Element Set (TLE):
1 32374U 07058B   16143.53608383 -.00000251  00000-0 -36929-3 0  9992
2 32374  46.5329 295.5395 7122486 152.5221 277.6616  2.35052946 71601
Source of the keplerian elements: AFSPC

N2YO: 486